| time (UTC) | temp F | wind direction | speed MPH | gust MPH | rain 1hr in | rain 24hr in | rain mn in | humidity % | barometer mb |
| 20260510203021 | 71 | 228 | 3.0 | 10.0 | 0.00 | 0.17 | 0.00 | 53 | 1012.4 |
| 20260510201519 | 72 | 286 | 3.0 | 10.0 | 0.00 | 0.17 | 0.00 | 50 | 1012.3 |
| 20260510200019 | 73 | 284 | 2.0 | 10.0 | 0.00 | 0.17 | 0.00 | 52 | 1012.3 |
| 20260510194522 | 73 | 241 | 1.0 | 5.0 | 0.00 | 0.18 | 0.00 | 54 | 1012.3 |
| 20260510193017 | 74 | 276 | 2.0 | 10.0 | 0.00 | 0.18 | 0.00 | 53 | 1012.3 |
| 20260510191514 | 73 | 235 | 2.0 | 12.0 | 0.00 | 0.18 | 0.00 | 53 | 1012.4 |
| 20260510190011 | 72 | 314 | 1.0 | 8.0 | 0.00 | 0.20 | 0.00 | 57 | 1012.4 |
| 20260510184508 | 72 | 328 | 4.0 | 10.0 | 0.00 | 0.20 | 0.00 | 59 | 1012.6 |
| 20260510183007 | 71 | 209 | 0.0 | 6.0 | 0.00 | 0.20 | 0.00 | 66 | 1012.7 |
| 20260510181510 | 71 | 243 | 0.0 | 4.0 | 0.00 | 0.20 | 0.00 | 65 | 1012.7 |
| 20260510180005 | 71 | 231 | 1.0 | 4.0 | 0.00 | 0.27 | 0.00 | 67 | 1012.6 |
| 20260510174504 | 71 | 122 | 1.0 | 3.0 | 0.00 | 0.27 | 0.00 | 68 | 1012.5 |
| 20260510173108 | 69 | 121 | 0.0 | 3.0 | 0.00 | 0.27 | 0.00 | 71 | 1012.6 |
| 20260510171606 | 67 | 223 | 2.0 | 6.0 | 0.00 | 0.27 | 0.00 | 74 | 1012.6 |
| 20260510170053 | 67 | 202 | 0.0 | 6.0 | 0.00 | 0.27 | 0.00 | 74 | 1012.8 |
| 20260510164550 | 66 | 169 | 0.0 | 3.0 | 0.00 | 0.27 | 0.00 | 76 | 1012.9 |
| 20260510163047 | 65 | 126 | 0.0 | 5.0 | 0.00 | 0.27 | 0.00 | 79 | 1013.0 |
| 20260510161543 | 64 | 92 | 1.0 | 8.0 | 0.00 | 0.27 | 0.00 | 80 | 1013.2 |
| 20260510160039 | 62 | 134 | 0.0 | 7.0 | 0.00 | 0.27 | 0.00 | 83 | 1013.1 |
| 20260510154539 | 61 | 228 | 0.0 | 7.0 | 0.00 | 0.27 | 0.00 | 85 | 1013.2 |
| 20260510153034 | 60 | 207 | 0.0 | 7.0 | 0.00 | 0.27 | 0.00 | 87 | 1013.4 |
| 20260510151533 | 59 | 149 | 2.0 | 5.0 | 0.00 | 0.27 | 0.00 | 89 | 1013.3 |
| 20260510150025 | 59 | 198 | 0.0 | 3.0 | 0.00 | 0.27 | 0.00 | 91 | 1013.6 |
| 20260510144534 | 58 | 198 | 0.0 | 3.0 | 0.00 | 0.27 | 0.00 | 92 | 1013.5 |
| 20260510143025 | 57 | 288 | 0.0 | 3.0 | 0.00 | 0.27 | 0.00 | 92 | 1013.4 |
| 20260510141518 | 57 | 206 | 0.0 | 3.0 | 0.00 | 0.27 | 0.00 | 93 | 1013.4 |
| 20260510140016 | 56 | 229 | 0.0 | 3.0 | 0.00 | 0.27 | 0.00 | 93 | 1013.4 |
| 20260510134515 | 56 | 209 | 0.0 | 4.0 | 0.00 | 0.27 | 0.00 | 93 | 1013.3 |
| 20260510133019 | 56 | 222 | 2.0 | 6.0 | 0.00 | 0.27 | 0.00 | 93 | 1013.3 |
| 20260510131517 | 55 | 166 | 0.0 | 2.0 | 0.00 | 0.27 | 0.00 | 93 | 1013.1 |
| 20260510130015 | 55 | 211 | 0.0 | 2.0 | 0.00 | 0.27 | 0.00 | 93 | 1012.9 |
| 20260510124507 | 55 | 219 | 1.0 | 3.0 | 0.00 | 0.27 | 0.00 | 93 | 1013.0 |
| 20260510123006 | 54 | 209 | 0.0 | 0.0 | 0.00 | 0.27 | 0.00 | 93 | 1012.8 |
| 20260510121504 | 54 | 209 | 0.0 | 1.0 | 0.00 | 0.27 | 0.00 | 93 | 1012.6 |
| 20260510120004 | 54 | 274 | 0.0 | 0.0 | 0.00 | 0.27 | 0.00 | 93 | 1012.5 |
| 20260510114501 | 54 | 330 | 0.0 | 0.0 | 0.00 | 0.27 | 0.00 | 93 | 1012.4 |
| 20260510113100 | 53 | 336 | 0.0 | 0.0 | 0.00 | 0.27 | 0.00 | 93 | 1012.3 |
| 20260510111607 | 53 | 161 | 0.0 | 0.0 | 0.00 | 0.27 | 0.00 | 93 | 1012.0 |
| 20260510110058 | 53 | 115 | 0.0 | 0.0 | 0.00 | 0.27 | 0.00 | 93 | 1011.8 |
| 20260510104613 | 52 | 114 | 0.0 | 0.0 | 0.00 | 0.27 | 0.00 | 92 | 1011.9 |
| 20260510103056 | 52 | 114 | 0.0 | 0.0 | 0.00 | 0.27 | 0.00 | 92 | 1011.9 |
| 20260510101556 | 52 | 105 | 0.0 | 0.0 | 0.00 | 0.27 | 0.00 | 92 | 1011.8 |
| 20260510094555 | 53 | 105 | 0.0 | 0.0 | 0.00 | 0.27 | 0.00 | 92 | 1011.9 |
| 20260510093054 | 53 | 118 | 0.0 | 0.0 | 0.00 | 0.27 | 0.00 | 92 | 1012.0 |
| 20260510091553 | 53 | 118 | 0.0 | 0.0 | 0.00 | 0.27 | 0.00 | 92 | 1012.2 |
| 20260510090053 | 53 | 118 | 0.0 | 0.0 | 0.00 | 0.27 | 0.00 | 92 | 1012.4 |
| 20260510084552 | 53 | 118 | 0.0 | 0.0 | 0.00 | 0.27 | 0.00 | 92 | 1012.3 |
| 20260510083051 | 53 | 118 | 0.0 | 0.0 | 0.00 | 0.27 | 0.00 | 92 | 1012.3 |
| 20260510081603 | 53 | 118 | 0.0 | 0.0 | 0.00 | 0.27 | 0.00 | 92 | 1012.1 |
| 20260510080047 | 53 | 95 | 0.0 | 0.0 | 0.00 | 0.27 | 0.00 | 92 | 1011.4 |
| 20260510074547 | 53 | 95 | 0.0 | 0.0 | 0.00 | 0.27 | 0.00 | 92 | 1011.3 |
| 20260510073046 | 53 | 95 | 0.0 | 0.0 | 0.00 | 0.27 | 0.00 | 92 | 1011.3 |
| 20260510071546 | 53 | 95 | 0.0 | 0.0 | 0.00 | 0.27 | 0.00 | 92 | 1011.2 |
| 20260510070047 | 53 | 95 | 0.0 | 0.0 | 0.00 | 0.27 | 0.00 | 92 | 1011.4 |
| 20260510064544 | 53 | 95 | 0.0 | 0.0 | 0.00 | 0.27 | 0.00 | 92 | 1011.5 |
| 20260510063042 | 53 | 95 | 0.0 | 0.0 | 0.00 | 0.27 | 0.00 | 92 | 1011.4 |
| 20260510061540 | 52 | 95 | 0.0 | 0.0 | 0.00 | 0.27 | 0.00 | 92 | 1011.0 |
| 20260510060048 | 52 | 95 | 0.0 | 0.0 | 0.00 | 0.27 | 0.00 | 92 | 1011.1 |
| 20260510054537 | 52 | 95 | 0.0 | 0.0 | 0.00 | 0.27 | 0.00 | 92 | 1011.1 |
| 20260510053036 | 52 | 95 | 0.0 | 0.0 | 0.00 | 0.27 | 0.00 | 92 | 1011.2 |
| 20260510051542 | 52 | 95 | 0.0 | 0.0 | 0.00 | 0.27 | 0.00 | 91 | 1011.3 |
| 20260510050039 | 52 | 95 | 0.0 | 0.0 | 0.00 | 0.27 | 0.00 | 91 | 1011.3 |
| 20260510044536 | 52 | 95 | 0.0 | 0.0 | 0.00 | 0.27 | 0.00 | 91 | 1011.3 |
| 20260510043035 | 52 | 95 | 0.0 | 0.0 | 0.00 | 0.27 | 0.00 | 91 | 1011.4 |
| 20260510041531 | 52 | 95 | 0.0 | 0.0 | 0.00 | 0.27 | 0.00 | 91 | 1011.4 |
| 20260510040028 | 52 | 95 | 0.0 | 0.0 | 0.00 | 0.27 | 0.00 | 91 | 1011.3 |
| 20260510034527 | 52 | 95 | 0.0 | 0.0 | 0.00 | 0.27 | 0.27 | 91 | 1011.2 |
| 20260510033025 | 52 | 95 | 0.0 | 0.0 | 0.00 | 0.27 | 0.27 | 91 | 1011.0 |
| 20260510031533 | 53 | 95 | 0.0 | 0.0 | 0.00 | 0.27 | 0.27 | 91 | 1010.9 |
| 20260510030022 | 53 | 95 | 0.0 | 0.0 | 0.01 | 0.27 | 0.27 | 91 | 1010.9 |
| 20260510024520 | 53 | 95 | 0.0 | 0.0 | 0.01 | 0.27 | 0.27 | 91 | 1010.9 |
| 20260510023036 | 53 | 95 | 0.0 | 0.0 | 0.02 | 0.27 | 0.27 | 91 | 1011.0 |
| 20260510021520 | 53 | 95 | 0.0 | 0.0 | 0.04 | 0.27 | 0.27 | 90 | 1011.1 |
| 20260510020019 | 53 | 95 | 0.0 | 0.0 | 0.05 | 0.26 | 0.26 | 90 | 1011.0 |
| 20260510014631 | 53 | 95 | 0.0 | 0.0 | 0.06 | 0.26 | 0.26 | 90 | 1011.0 |